Wind_Speed
4 4 4 4 3 3 3 3 3 3 3 3 2 2 1 1 1 0 1 1 1 1 1 1 1 1 2 2 2 2 3 3 3 3 4 4 4 4 4 4 4 4 5
5 5 4 4 3 3 2 2 2 2 2 2 2 1 1 0 1 1 1 1 1 1 1 1 2 2 2 2 2 3 3 4 4 4 4 4 4 4 4 4 4 4 5
6 6 5 5 4 3 2 2 2 2 2 2 2 1 0 0 1 1 1 1 2 2 2 2 2 2 2 2 2 2 2 3 4 4 4 4 4 5 4 4 5 5 5
6 6 6 5 4 3 3 2 2 2 2 2 2 1 1 1 0 0 0 0 1 2 2 2 2 2 3 2 3 3 3 4 4 4 4 5 5 6 6 6 6 6 6
6 7 7 6 6 5 4 3 3 2 2 2 2 1 1 0 0 0 1 1 1 2 2 3 3 3 3 3 3 3 4 4 4 4 4 5 5 6 6 6 7 7 6
7 7 7 7 6 5 4 4 3 3 3 3 2 1 1 1 1 1 2 2 2 2 2 3 4 4 4 4 4 4 4 4 4 4 5 5 6 6 7 7 7 7 8
8 8 8 8 7 6 5 5 4 4 3 3 2 2 2 2 2 2 2 3 3 3 4 4 4 5 5 4 4 5 5 5 6 6 6 7 7 7 7 8 9 9 9
7 8 8 8 8 8 7 6 5 4 4 4 3 3 3 3 4 4 4 4 4 4 4 4 5 5 5 5 5 5 6 6 7 7 7 8 9 9 9 10 10 10 11
8 8 8 8 8 9 8 8 7 6 6 5 5 4 4 4 5 5 5 5 5 5 6 6 6 6 6 7 7 7 7 8 8 8 8 9 10 10 10 11 11 12 12
7 8 9 9 8 9 9 9 8 7 7 7 7 6 6 6 6 6 7 7 7 7 7 7 8 8 7 8 8 9 9 9 9 10 10 10 11 11 11 11 12 12 13
8 9 10 10 10 10 10 10 10 9 9 8 8 8 8 8 8 8 8 9 9 9 9 9 9 10 10 10 10 10 11 11 12 12 12 12 12 13 13 13 13 14 14
9 9 10 11 11 11 12 12 12 11 11 10 10 10 10 10 10 10 10 11 11 11 11 11 11 12 12 12 12 13 13 14 15 15 15 15 15 15 15 15 16 16 17
8 10 10 11 11 12 12 13 13 13 12 12 12 12 12 12 12 12 13 13 14 14 14 14 14 14 15 15 16 16 16 16 17 18 19 18 19 19 19 19 19 19 20
9 9 9 10 11 12 13 14 14 14 14 14 14 15 15 15 15 15 15 16 17 17 18 18 18 17 18 18 19 19 19 20 21 21 22 22 22 22 23 23 23 23 23
9 10 10 10 11 12 14 15 15 15 16 15 16 16 17 18 18 18 18 18 19 21 21 22 22 22 22 22 22 22 23 23 24 24 25 25 25 25 25 26 26 26 27
9 10 11 12 12 13 14 14 16 17 17 18 18 19 19 20 20 21 21 21 22 22 23 24 24 24 24 25 25 25 25 26 27 27 28 28 28 28 28 28 28 29 29
9 10 11 12 13 13 14 14 16 17 18 19 20 21 21 22 23 23 23 23 24 24 25 26 26 26 27 27 28 28 28 29 29 29 30 30 30 31 31 31 31 31 31
10 10 10 11 13 13 14 15 16 18 19 20 21 21 22 23 24 24 25 25 25 26 26 26 27 28 28 28 29 29 30 30 30 30 31 32 32 32 33 34 34 34 34
11 11 11 12 13 14 15 16 17 19 20 21 22 23 23 24 24 25 26 26 27 27 27 28 29 30 29 29 31 31 32 32 31 32 32 33 34 35 35 36 36 37 37
12 12 13 14 15 16 17 18 19 20 21 22 23 24 24 24 25 26 27 28 28 27 28 29 30 30 30 31 32 32 33 33 33 34 34 35 36 36 36 37 37 37 38
14 14 15 15 16 17 19 20 21 21 22 23 23 24 25 25 26 27 27 27 28 28 28 29 30 30 31 32 32 32 33 33 33 35 36 37 38 38 38 38 38 39 39
15 16 17 18 19 19 20 21 22 23 23 24 25 26 26 27 27 27 28 28 29 28 29 30 30 31 32 33 34 34 35 35 35 36 37 38 39 39 39 38 39 40 41
17 18 18 19 20 21 21 23 24 25 25 25 25 25 26 27 27 26 27 27 28 28 29 30 30 31 32 33 35 35 36 37 37 37 38 39 40 40 40 41 42 43 44
19 19 20 20 21 22 23 23 24 25 25 26 26 26 27 27 27 27 28 28 29 30 31 32 32 32 33 34 35 36 37 37 37 38 39 39 39 40 41 41 42 42 42
20 21 21 22 22 24 24 25 25 25 26 26 27 27 27 27 27 29 29 30 31 31 32 33 33 34 34 34 35 36 36 37 38 38 38 39 40 41 42 43 43 42 42
21 22 23 24 24 25 25 26 26 26 27 27 28 28 28 29 29 29 30 31 31 32 33 33 34 35 35 35 35 36 37 38 39 40 40 41 42 43 43 43 43 43 43
Wind_Direction
180 180 169 163 154 140 134 128 126 127 125 128 126 114 114 103 127 205 184 190 202 211 232 249 247 248 256 255 244 240 237 236 239 240 239 239 247 254 258 263 261 262 268
190 186 183 176 174 167 166 164 156 137 131 136 136 133 154 151 151 152 183 208 219 226 238 253 264 274 275 258 247 244 239 240 244 242 241 241 250 255 256 262 263 268 271
198 198 200 194 188 184 184 189 183 158 155 150 151 154 105 112 141 135 178 224 226 230 246 260 263 265 272 265 261 259 250 244 242 238 240 241 248 255 255 261 261 266 271
202 202 202 199 195 191 183 184 186 173 162 157 151 149 113 69 117 130 271 252 232 234 247 264 270 264 264 267 271 270 263 257 253 248 247 247 252 257 259 260 263 268 273
207 204 204 203 199 195 189 182 179 174 166 163 161 175 204 16 32 357 336 312 263 251 248 259 268 267 266 266 267 267 271 263 257 257 255 256 258 260 261 262 264 266 269
211 209 210 211 207 204 196 187 182 180 178 183 198 222 245 248 266 299 297 286 274 274 267 264 266 267 267 266 268 267 268 263 260 264 261 263 265 265 265 265 266 266 268
214 216 215 217 217 213 208 202 201 204 203 208 223 237 251 256 270 289 286 281 276 278 278 271 265 267 268 273 270 267 265 261 261 268 267 265 267 269 269 269 268 267 270
219 224 219 218 218 220 223 221 219 218 224 229 237 242 252 264 274 279 283 276 274 278 277 274 267 266 269 267 265 267 265 263 266 266 270 269 270 270 268 272 273 271 273
228 229 226 227 228 226 227 229 233 233 236 240 245 249 254 264 272 278 279 277 275 276 275 272 271 267 265 266 264 264 263 263 266 267 269 271 273 274 271 272 273 273 273
234 231 234 233 232 229 230 231 233 238 241 245 248 252 260 264 270 274 277 277 277 278 274 271 270 271 270 268 267 267 265 262 265 268 272 273 273 274 275 276 275 274 274
244 241 237 236 237 236 235 236 236 241 244 247 251 257 260 263 267 273 276 276 275 275 275 273 274 275 275 274 274 271 268 267 268 270 273 275 276 277 277 276 276 276 277
248 250 243 239 240 240 240 242 242 245 247 249 252 259 264 267 267 270 274 277 276 275 275 275 275 277 277 277 276 275 274 273 273 274 274 275 275 276 277 277 277 278 278
251 253 252 246 246 244 245 248 248 250 252 254 259 262 263 266 269 271 273 275 275 275 275 276 276 277 277 277 278 279 278 278 278 276 274 274 274 275 275 276 276 277 278
260 255 252 252 251 250 250 251 252 254 254 258 263 265 265 267 270 272 274 274 273 273 274 275 276 276 277 277 278 278 278 278 278 278 277 274 274 275 274 275 275 276 277
266 259 258 258 256 255 253 253 254 256 258 260 264 267 268 269 271 273 274 275 275 274 274 274 274 275 275 277 279 278 277 277 277 278 278 276 275 276 276 276 276 275 277
270 263 261 262 265 264 260 257 258 258 260 262 264 268 270 270 272 275 275 275 276 276 275 275 275 275 276 277 278 279 278 278 278 278 277 276 276 275 276 276 276 275 276
276 274 268 268 268 268 266 264 261 260 263 265 267 269 270 273 273 273 275 276 276 277 276 275 276 276 276 276 278 279 279 278 279 279 278 276 276 276 276 276 277 277 277
283 279 277 273 271 270 269 268 266 266 267 269 271 272 274 274 273 273 275 277 278 278 277 275 276 278 279 279 279 279 281 282 281 281 279 278 278 276 276 275 275 276 277
286 284 282 279 277 277 275 273 272 271 272 273 273 274 275 277 276 275 276 278 279 278 278 276 276 277 278 279 280 280 281 282 281 282 281 280 278 277 276 275 275 275 275
293 287 284 282 281 279 279 278 278 277 276 275 275 276 276 277 276 277 278 278 278 278 277 278 277 277 279 280 281 282 283 283 282 282 281 281 281 279 277 276 276 276 276
295 290 285 285 283 282 280 281 281 280 279 278 278 279 280 279 278 279 281 280 279 280 280 280 279 279 280 281 281 283 283 282 282 283 282 282 282 281 281 279 278 278 276
289 290 287 285 285 285 283 283 283 282 281 280 281 282 282 282 281 280 281 283 283 283 283 283 282 281 282 282 283 283 284 284 285 284 283 282 282 282 282 281 280 280 280
288 289 289 288 287 286 285 284 284 284 282 283 282 282 283 285 285 285 284 285 286 286 286 286 285 284 283 283 283 284 284 285 285 286 285 284 283 283 283 282 281 280 281
287 289 290 291 290 290 288 287 286 285 284 284 284 285 286 286 287 287 285 286 286 285 285 286 287 287 286 285 285 285 284 285 285 286 285 285 285 285 284 284 284 283 282
286 287 289 291 291 290 290 289 287 287 285 286 286 287 287 289 289 289 289 289 288 287 286 286 286 286 287 287 287 287 286 286 287 287 287 287 287 286 285 285 283 282 282
288 287 288 289 291 293 292 291 290 289 288 288 288 288 287 288 290 290 290 290 290 289 289 289 289 288 288 288 289 289 288 287 287 287 287 287 286 285 285 285 285 284 284
Height
5905 5905 5906 5906 5907 5907 5907 5907 5907 5907 5907 5907 5908 5908 5908 5908 5908 5907 5907 5907 5908 5908 5908 5908 5908 5908 5908 5908 5908 5908 5908 5909 5909 5909 5909 5909 5910 5910 5910 5910 5910 5911 5911
5905 5906 5906 5907 5907 5907 5907 5907 5907 5907 5907 5908 5908 5908 5908 5908 5907 5907 5907 5907 5907 5907 5908 5908 5908 5907 5907 5907 5907 5907 5907 5908 5908 5908 5908 5909 5909 5909 5909 5909 5910 5910 5909
5905 5905 5906 5907 5907 5907 5907 5907 5907 5907 5908 5908 5908 5908 5908 5907 5907 5907 5907 5907 5907 5907 5907 5907 5907 5907 5907 5907 5907 5907 5907 5907 5907 5907 5907 5908 5908 5908 5908 5908 5908 5908 5908
5904 5905 5906 5906 5906 5907 5907 5907 5907 5907 5907 5908 5908 5908 5908 5907 5907 5907 5907 5906 5906 5906 5906 5906 5907 5906 5906 5906 5906 5906 5906 5906 5906 5906 5906 5906 5907 5907 5907 5907 5907 5907 5907
5903 5904 5905 5905 5906 5906 5906 5907 5907 5907 5907 5908 5908 5908 5907 5907 5907 5907 5907 5906 5906 5906 5906 5906 5906 5906 5905 5905 5905 5905 5905 5905 5905 5905 5905 5905 5905 5905 5905 5906 5906 5905 5905
5902 5903 5904 5905 5905 5906 5906 5907 5907 5907 5907 5907 5907 5908 5908 5908 5907 5907 5907 5906 5906 5905 5905 5905 5905 5905 5904 5904 5904 5904 5904 5904 5904 5904 5904 5904 5904 5904 5904 5904 5904 5904 5904
5901 5902 5903 5904 5904 5905 5906 5906 5907 5907 5907 5907 5907 5907 5907 5907 5907 5907 5906 5906 5905 5905 5905 5904 5904 5904 5903 5903 5903 5903 5903 5903 5902 5902 5902 5902 5902 5902 5902 5902 5902 5902 5902
5899 5900 5902 5902 5903 5904 5905 5905 5906 5906 5906 5907 5907 5907 5907 5908 5906 5906 5906 5905 5905 5904 5904 5903 5903 5902 5902 5902 5901 5901 5901 5901 5901 5901 5900 5900 5900 5900 5900 5899 5899 5899 5899
5898 5899 5900 5901 5902 5903 5903 5904 5905 5905 5906 5906 5906 5906 5907 5906 5906 5906 5905 5904 5904 5903 5903 5902 5902 5901 5901 5900 5900 5899 5899 5899 5899 5899 5898 5898 5898 5897 5897 5897 5896 5896 5896
5897 5897 5898 5899 5900 5901 5902 5902 5903 5904 5904 5905 5905 5905 5905 5905 5904 5904 5904 5903 5902 5902 5901 5901 5900 5900 5899 5899 5898 5898 5897 5897 5897 5896 5896 5895 5895 5895 5894 5894 5893 5893 5893
5895 5896 5896 5897 5898 5899 5900 5901 5902 5902 5902 5903 5903 5903 5903 5903 5902 5902 5902 5901 5901 5900 5899 5899 5898 5898 5897 5897 5896 5896 5895 5895 5894 5894 5893 5893 5892 5892 5891 5891 5890 5890 5889
5893 5894 5894 5895 5896 5897 5898 5898 5899 5900 5900 5901 5901 5901 5901 5901 5900 5900 5900 5899 5898 5898 5897 5897 5896 5895 5895 5894 5894 5893 5892 5892 5891 5891 5890 5890 5889 5888 5888 5887 5886 5886 5885
5891 5892 5892 5892 5893 5894 5895 5896 5897 5897 5898 5898 5898 5898 5898 5898 5898 5898 5897 5896 5896 5895 5894 5894 5893 5892 5892 5891 5890 5890 5889 5888 5888 5887 5886 5885 5885 5884 5883 5882 5882 5881 5880
5889 5889 5890 5890 5891 5891 5892 5893 5894 5894 5895 5895 5895 5895 5895 5895 5895 5894 5894 5893 5892 5892 5891 5890 5889 5889 5888 5887 5886 5886 5885 5884 5883 5882 5881 5880 5880 5879 5878 5877 5876 5876 5875
5887 5887 5888 5888 5888 5889 5889 5889 5890 5891 5891 5891 5892 5892 5891 5891 5891 5890 5890 5889 5889 5887 5887 5886 5885 5884 5883 5882 5881 5880 5879 5879 5877 5876 5876 5874 5874 5873 5872 5871 5870 5869 5868
5885 5885 5885 5886 5886 5886 5885 5886 5886 5887 5887 5887 5887 5887 5887 5887 5887 5886 5885 5884 5883 5882 5881 5880 5879 5878 5877 5876 5875 5874 5873 5872 5871 5870 5869 5868 5867 5866 5865 5864 5863 5862 5861
5883 5883 5883 5883 5882 5882 5882 5882 5882 5883 5883 5883 5883 5883 5882 5882 5881 5880 5879 5878 5877 5876 5875 5874 5873 5872 5871 5869 5868 5867 5866 5865 5863 5862 5861 5860 5859 5858 5857 5856 5855 5853 5852
5881 5881 5880 5880 5880 5879 5879 5879 5879 5879 5878 5878 5878 5877 5877 5876 5875 5874 5873 5872 5871 5869 5868 5867 5866 5865 5863 5862 5861 5860 5858 5857 5855 5854 5853 5851 5850 5849 5848 5847 5845 5844 5843
5879 5878 5877 5877 5877 5876 5876 5875 5875 5874 5874 5873 5872 5872 5871 5870 5868 5867 5866 5865 5864 5862 5861 5860 5859 5857 5856 5855 5853 5852 5850 5848 5847 5845 5844 5842 5841 5839 5838 5837 5835 5834 5833
5877 5876 5875 5874 5873 5873 5872 5871 5870 5869 5868 5867 5867 5866 5864 5863 5862 5860 5859 5858 5856 5855 5854 5852 5851 5850 5848 5847 5845 5844 5842 5840 5839 5837 5835 5833 5831 5829 5828 5827 5825 5824 5823
5874 5873 5872 5871 5870 5869 5868 5866 5865 5864 5863 5862 5861 5860 5858 5857 5855 5853 5852 5851 5849 5847 5846 5845 5844 5842 5841 5839 5837 5835 5834 5832 5829 5828 5825 5823 5821 5819 5818 5816 5814 5813 5811
5871 5869 5868 5867 5865 5864 5863 5862 5860 5859 5858 5856 5855 5853 5851 5850 5848 5846 5845 5843 5842 5840 5839 5838 5836 5835 5833 5831 5829 5826 5825 5823 5820 5818 5815 5813 5811 5809 5807 5805 5803 5801 5800
5867 5865 5864 5862 5861 5859 5858 5856 5855 5853 5852 5850 5848 5846 5845 5843 5841 5840 5838 5836 5835 5833 5832 5830 5828 5826 5824 5822 5819 5817 5815 5813 5810 5808 5805 5803 5800 5798 5796 5794 5792 5790 5788
5862 5861 5859 5857 5856 5854 5852 5850 5849 5847 5845 5844 5842 5840 5838 5836 5834 5833 5831 5829 5828 5826 5824 5821 5819 5817 5815 5812 5810 5808 5805 5803 5800 5798 5795 5792 5790 5787 5785 5782 5780 5778 5775
5857 5856 5854 5852 5850 5848 5847 5845 5843 5841 5839 5837 5835 5833 5831 5830 5828 5826 5823 5821 5819 5817 5815 5812 5810 5808 5805 5803 5800 5798 5795 5792 5790 5787 5784 5781 5779 5776 5773 5771 5768 5765 5763
5852 5850 5848 5847 5845 5842 5841 5839 5837 5835 5833 5831 5829 5826 5824 5822 5820 5818 5816 5813 5811 5808 5806 5803 5801 5798 5796 5793 5791 5788 5785 5782 5779 5776 5773 5770 5767 5764 5761 5758 5755 5753 5750